| time (UTC) | temp F | wind direction | speed MPH | gust MPH | rain 1hr in | rain 24hr in | rain mn in | humidity % | barometer mb |
| 20260502180406 | 69 | 219 | 2.0 | 3.0 | 0.00 | 0.00 | 0.00 | 21 | 1017.6 |
| 20260502170325 | 68 | 205 | 4.0 | 5.0 | 0.00 | 0.00 | 0.00 | 23 | 1017.8 |
| 20260502164312 | 66 | 257 | 0.0 | 1.0 | 0.00 | 0.00 | 0.00 | 29 | 1017.7 |
| 20260502163808 | 65 | 212 | 3.0 | 3.0 | 0.00 | 0.00 | 0.00 | 28 | 1017.6 |
| 20260502163304 | 66 | 234 | 0.0 | 1.0 | 0.00 | 0.00 | 0.00 | 26 | 1018.1 |
| 20260502162802 | 64 | 156 | 1.0 | 1.0 | 0.00 | 0.00 | 0.00 | 25 | 1017.8 |
| 20260502162259 | 64 | 271 | 0.0 | 0.0 | 0.00 | 0.00 | 0.00 | 27 | 1017.8 |
| 20260502161755 | 64 | 289 | 1.0 | 2.0 | 0.00 | 0.00 | 0.00 | 28 | 1017.7 |
| 20260502161252 | 64 | 289 | 1.0 | 2.0 | 0.00 | 0.00 | 0.00 | 29 | 1017.6 |
| 20260502160750 | 64 | 239 | 0.0 | 0.0 | 0.00 | 0.00 | 0.00 | 26 | 1017.7 |
| 20260502160249 | 63 | 262 | 1.0 | 1.0 | 0.00 | 0.00 | 0.00 | 29 | 1018.0 |
| 20260502152218 | 60 | 161 | 0.0 | 0.0 | 0.00 | 0.00 | 0.00 | 29 | 1017.7 |
| 20260502151715 | 59 | 246 | 1.0 | 1.0 | 0.00 | 0.00 | 0.00 | 31 | 1017.8 |
| 20260502151212 | 59 | 198 | 1.0 | 1.0 | 0.00 | 0.00 | 0.00 | 29 | 1017.8 |
| 20260502150710 | 60 | 202 | 0.0 | 0.0 | 0.00 | 0.00 | 0.00 | 32 | 1018.0 |
| 20260502150206 | 61 | 116 | 1.0 | 2.0 | 0.00 | 0.00 | 0.00 | 30 | 1018.1 |
| 20260502140130 | 56 | 99 | 1.0 | 1.0 | 0.00 | 0.00 | 0.00 | 35 | 1018.0 |
| 20260502130555 | 47 | 162 | 0.0 | 0.0 | 0.00 | 0.00 | 0.00 | 46 | 1017.5 |
| 20260502123538 | 42 | 142 | 0.0 | 1.0 | 0.00 | 0.00 | 0.00 | 54 | 1017.4 |
| 20260502123034 | 43 | 159 | 0.0 | 0.0 | 0.00 | 0.00 | 0.00 | 54 | 1017.4 |
| 20260502122531 | 43 | 124 | 0.0 | 0.0 | 0.00 | 0.00 | 0.00 | 54 | 1017.3 |
| 20260502122028 | 42 | 136 | 0.0 | 0.0 | 0.00 | 0.00 | 0.00 | 57 | 1017.3 |
| 20260502121526 | 42 | 133 | 0.0 | 0.0 | 0.00 | 0.00 | 0.00 | 56 | 1017.3 |
| 20260502121023 | 42 | 123 | 0.0 | 0.0 | 0.00 | 0.00 | 0.00 | 56 | 1017.2 |
| 20260502120519 | 43 | 119 | 0.0 | 0.0 | 0.00 | 0.00 | 0.00 | 55 | 1017.1 |
| 20260502115514 | 44 | 109 | 0.0 | 1.0 | 0.00 | 0.00 | 0.00 | 54 | 1017.2 |
| 20260502115009 | 44 | 113 | 1.0 | 1.0 | 0.00 | 0.00 | 0.00 | 53 | 1017.4 |
| 20260502114507 | 45 | 141 | 0.0 | 0.0 | 0.00 | 0.00 | 0.00 | 52 | 1017.2 |
| 20260502114003 | 46 | 141 | 0.0 | 0.0 | 0.00 | 0.00 | 0.00 | 50 | 1017.3 |
| 20260502113501 | 47 | 137 | 1.0 | 1.0 | 0.00 | 0.00 | 0.00 | 44 | 1017.4 |
| 20260502113000 | 47 | 112 | 1.0 | 1.0 | 0.00 | 0.00 | 0.00 | 47 | 1017.3 |
| 20260502112457 | 47 | 61 | 1.0 | 2.0 | 0.00 | 0.00 | 0.00 | 44 | 1017.2 |
| 20260502111954 | 47 | 43 | 1.0 | 1.0 | 0.00 | 0.00 | 0.00 | 46 | 1017.3 |
| 20260502111451 | 47 | 45 | 1.0 | 1.0 | 0.00 | 0.00 | 0.00 | 45 | 1017.2 |
| 20260502110949 | 47 | 49 | 1.0 | 1.0 | 0.00 | 0.00 | 0.00 | 46 | 1017.4 |
| 20260502110446 | 47 | 51 | 0.0 | 1.0 | 0.00 | 0.00 | 0.00 | 47 | 1017.2 |
| 20260502105943 | 47 | 52 | 1.0 | 1.0 | 0.00 | 0.00 | 0.00 | 46 | 1017.3 |
| 20260502105441 | 47 | 52 | 1.0 | 1.0 | 0.00 | 0.00 | 0.00 | 47 | 1017.3 |
| 20260502104939 | 47 | 53 | 1.0 | 1.0 | 0.00 | 0.00 | 0.00 | 49 | 1017.3 |
| 20260502104435 | 47 | 53 | 1.0 | 1.0 | 0.00 | 0.00 | 0.00 | 49 | 1016.9 |
| 20260502103932 | 47 | 56 | 1.0 | 1.0 | 0.00 | 0.00 | 0.00 | 49 | 1017.2 |
| 20260502103430 | 47 | 58 | 0.0 | 1.0 | 0.00 | 0.00 | 0.00 | 53 | 1017.4 |
| 20260502102927 | 47 | 58 | 0.0 | 0.0 | 0.00 | 0.00 | 0.00 | 54 | 1017.4 |
| 20260502102424 | 46 | 63 | 1.0 | 1.0 | 0.00 | 0.00 | 0.00 | 56 | 1017.6 |
| 20260502101921 | 46 | 71 | 1.0 | 1.0 | 0.00 | 0.00 | 0.00 | 57 | 1017.2 |
| 20260502101419 | 46 | 72 | 0.0 | 1.0 | 0.00 | 0.00 | 0.00 | 56 | 1017.3 |
| 20260502100917 | 46 | 72 | 1.0 | 1.0 | 0.00 | 0.00 | 0.00 | 56 | 1017.4 |
| 20260502100416 | 46 | 76 | 0.0 | 0.0 | 0.00 | 0.00 | 0.00 | 57 | 1017.3 |
| 20260502091350 | 47 | 98 | 1.0 | 1.0 | 0.00 | 0.00 | 0.00 | 55 | 1017.3 |
| 20260502090848 | 47 | 100 | 1.0 | 1.0 | 0.00 | 0.00 | 0.00 | 53 | 1017.2 |
| 20260502090344 | 46 | 101 | 1.0 | 1.0 | 0.00 | 0.00 | 0.00 | 54 | 1017.3 |
| 20260502071239 | 50 | 89 | 1.0 | 1.0 | 0.00 | 0.00 | 0.00 | 50 | 1016.9 |
| 20260502070737 | 50 | 91 | 0.0 | 0.0 | 0.00 | 0.00 | 0.00 | 52 | 1016.6 |
| 20260502070235 | 51 | 91 | 0.0 | 0.0 | 0.00 | 0.00 | 0.00 | 51 | 1017.1 |
| 20260502065733 | 51 | 101 | 1.0 | 1.0 | 0.00 | 0.00 | 0.00 | 50 | 1016.8 |
| 20260502065231 | 51 | 107 | 1.0 | 1.0 | 0.00 | 0.00 | 0.00 | 49 | 1016.9 |
| 20260502064729 | 51 | 107 | 0.0 | 0.0 | 0.00 | 0.00 | 0.00 | 50 | 1017.1 |
| 20260502064226 | 51 | 107 | 1.0 | 1.0 | 0.00 | 0.00 | 0.00 | 50 | 1017.2 |
| 20260502063724 | 51 | 108 | 1.0 | 1.0 | 0.00 | 0.00 | 0.00 | 50 | 1016.7 |
| 20260502063221 | 50 | 117 | 1.0 | 1.0 | 0.00 | 0.00 | 0.00 | 51 | 1017.1 |
| 20260502062718 | 51 | 177 | 1.0 | 1.0 | 0.00 | 0.00 | 0.00 | 50 | 1016.9 |
| 20260502062216 | 50 | 223 | 0.0 | 0.0 | 0.00 | 0.00 | 0.00 | 50 | 1017.1 |
| 20260502061714 | 50 | 231 | 0.0 | 0.0 | 0.00 | 0.00 | 0.00 | 50 | 1017.1 |
| 20260502061210 | 50 | 216 | 1.0 | 1.0 | 0.00 | 0.00 | 0.00 | 50 | 1017.1 |
| 20260502060701 | 50 | 231 | 0.0 | 0.0 | 0.00 | 0.00 | 0.00 | 50 | 1016.8 |
| 20260502060157 | 51 | 246 | 1.0 | 2.0 | 0.00 | 0.00 | 0.00 | 49 | 1016.9 |
| 20260502055655 | 51 | 263 | 1.0 | 1.0 | 0.00 | 0.00 | 0.00 | 47 | 1016.8 |
| 20260502055153 | 51 | 263 | 0.0 | 1.0 | 0.00 | 0.00 | 0.00 | 48 | 1016.7 |
| 20260502054652 | 52 | 263 | 0.0 | 0.0 | 0.00 | 0.00 | 0.00 | 47 | 1016.8 |
| 20260502054149 | 53 | 263 | 0.0 | 0.0 | 0.00 | 0.00 | 0.00 | 44 | 1016.7 |
| 20260502053646 | 52 | 257 | 1.0 | 1.0 | 0.00 | 0.00 | 0.00 | 45 | 1016.7 |
| 20260502053143 | 52 | 214 | 0.0 | 0.0 | 0.00 | 0.00 | 0.00 | 46 | 1016.7 |
| 20260502052641 | 52 | 214 | 0.0 | 1.0 | 0.00 | 0.00 | 0.00 | 46 | 1017.1 |
| 20260502052139 | 52 | 214 | 0.0 | 0.0 | 0.00 | 0.00 | 0.00 | 46 | 1016.7 |
| 20260502051637 | 53 | 202 | 0.0 | 0.0 | 0.00 | 0.00 | 0.00 | 44 | 1016.8 |
| 20260502051135 | 53 | 194 | 0.0 | 1.0 | 0.00 | 0.00 | 0.00 | 44 | 1016.9 |
| 20260502050631 | 51 | 205 | 0.0 | 1.0 | 0.00 | 0.00 | 0.00 | 46 | 1016.9 |
| 20260502050127 | 53 | 213 | 0.0 | 1.0 | 0.00 | 0.00 | 0.00 | 47 | 1016.7 |
| 20260502045624 | 53 | 218 | 0.0 | 0.0 | 0.00 | 0.00 | 0.00 | 44 | 1017.1 |
| 20260502045122 | 53 | 218 | 0.0 | 0.0 | 0.00 | 0.00 | 0.00 | 46 | 1016.7 |
| 20260502044617 | 52 | 218 | 0.0 | 0.0 | 0.00 | 0.00 | 0.00 | 47 | 1016.7 |
| 20260502044115 | 53 | 217 | 0.0 | 0.0 | 0.00 | 0.00 | 0.00 | 46 | 1016.9 |
| 20260502043612 | 54 | 207 | 0.0 | 1.0 | 0.00 | 0.00 | 0.00 | 44 | 1016.6 |
| 20260502043108 | 54 | 225 | 0.0 | 0.0 | 0.00 | 0.00 | 0.00 | 44 | 1016.5 |
| 20260502042603 | 54 | 221 | 0.0 | 0.0 | 0.00 | 0.00 | 0.00 | 46 | 1017.1 |
| 20260502042101 | 55 | 146 | 0.0 | 0.0 | 0.00 | 0.00 | 0.00 | 43 | 1016.6 |
| 20260502041558 | 55 | 157 | 0.0 | 1.0 | 0.00 | 0.00 | 0.00 | 44 | 1016.6 |
| 20260502041055 | 55 | 176 | 1.0 | 1.0 | 0.00 | 0.00 | 0.00 | 45 | 1016.5 |
| 20260502040551 | 56 | 206 | 2.0 | 2.0 | 0.00 | 0.00 | 0.00 | 44 | 1016.6 |
| 20260502040049 | 55 | 240 | 0.0 | 1.0 | 0.00 | 0.00 | 0.00 | 46 | 1016.3 |
| 20260502035545 | 54 | 252 | 1.0 | 1.0 | 0.00 | 0.00 | 0.00 | 47 | 1016.6 |
| 20260502035042 | 54 | 304 | 1.0 | 1.0 | 0.00 | 0.00 | 0.00 | 47 | 1016.3 |
| 20260502034540 | 54 | 290 | 0.0 | 0.0 | 0.00 | 0.00 | 0.00 | 49 | 1016.1 |
| 20260502034038 | 55 | 290 | 0.0 | 0.0 | 0.00 | 0.00 | 0.00 | 48 | 1016.4 |
| 20260502033536 | 55 | 285 | 0.0 | 0.0 | 0.00 | 0.00 | 0.00 | 47 | 1016.3 |
| 20260502033033 | 55 | 284 | 0.0 | 0.0 | 0.00 | 0.00 | 0.00 | 48 | 1016.4 |
| 20260502032529 | 55 | 284 | 0.0 | 0.0 | 0.00 | 0.00 | 0.00 | 47 | 1015.9 |
| 20260502032026 | 55 | 284 | 0.0 | 0.0 | 0.00 | 0.00 | 0.00 | 48 | 1016.1 |
| 20260502031524 | 56 | 284 | 0.0 | 0.0 | 0.00 | 0.00 | 0.00 | 47 | 1016.1 |
| 20260502031022 | 56 | 284 | 0.0 | 1.0 | 0.00 | 0.00 | 0.00 | 46 | 1015.6 |
| 20260502030520 | 56 | 283 | 0.0 | 0.0 | 0.00 | 0.00 | 0.00 | 45 | 1015.8 |
| 20260502030018 | 56 | 279 | 0.0 | 0.0 | 0.00 | 0.00 | 0.00 | 46 | 1015.7 |
| 20260502025515 | 56 | 279 | 0.0 | 1.0 | 0.00 | 0.00 | 0.00 | 45 | 1015.8 |
| 20260502025013 | 57 | 280 | 0.0 | 0.0 | 0.00 | 0.00 | 0.00 | 45 | 1015.6 |
| 20260502024510 | 58 | 285 | 0.0 | 0.0 | 0.00 | 0.00 | 0.00 | 43 | 1015.7 |
| 20260502024009 | 58 | 284 | 1.0 | 2.0 | 0.00 | 0.00 | 0.00 | 42 | 1015.5 |
| 20260502023506 | 59 | 274 | 0.0 | 1.0 | 0.00 | 0.00 | 0.00 | 41 | 1015.5 |
| 20260502023003 | 59 | 284 | 2.0 | 2.0 | 0.00 | 0.00 | 0.00 | 41 | 1015.6 |
| 20260502022459 | 59 | 258 | 0.0 | 1.0 | 0.00 | 0.00 | 0.00 | 38 | 1015.6 |
| 20260502021956 | 60 | 266 | 1.0 | 1.0 | 0.00 | 0.00 | 0.00 | 36 | 1015.6 |
| 20260502021454 | 60 | 276 | 1.0 | 1.0 | 0.00 | 0.00 | 0.00 | 36 | 1015.2 |
| 20260502020950 | 61 | 262 | 1.0 | 1.0 | 0.00 | 0.00 | 0.00 | 35 | 1015.4 |
| 20260502020449 | 61 | 264 | 1.0 | 1.0 | 0.00 | 0.00 | 0.00 | 34 | 1015.2 |
| 20260502015945 | 61 | 256 | 1.0 | 2.0 | 0.00 | 0.00 | 0.00 | 35 | 1015.4 |
| 20260502015443 | 61 | 267 | 2.0 | 3.0 | 0.00 | 0.00 | 0.00 | 34 | 1015.1 |
| 20260502014939 | 62 | 264 | 1.0 | 1.0 | 0.00 | 0.00 | 0.00 | 36 | 1015.2 |
| 20260502014436 | 62 | 233 | 3.0 | 3.0 | 0.00 | 0.00 | 0.00 | 35 | 1015.2 |
| 20260502013933 | 63 | 248 | 4.0 | 5.0 | 0.00 | 0.00 | 0.00 | 34 | 1015.4 |
| 20260502013428 | 63 | 265 | 3.0 | 5.0 | 0.00 | 0.00 | 0.00 | 33 | 1015.1 |
| 20260502012925 | 63 | 268 | 4.0 | 6.0 | 0.00 | 0.00 | 0.00 | 31 | 1015.2 |
| 20260502012423 | 64 | 255 | 4.0 | 6.0 | 0.00 | 0.00 | 0.00 | 30 | 1015.1 |
| 20260502011920 | 64 | 294 | 4.0 | 5.0 | 0.00 | 0.00 | 0.00 | 29 | 1015.0 |
| 20260502011416 | 64 | 288 | 4.0 | 5.0 | 0.00 | 0.00 | 0.00 | 30 | 1015.0 |
| 20260502010913 | 64 | 251 | 3.0 | 3.0 | 0.00 | 0.00 | 0.00 | 33 | 1015.4 |
| 20260502010410 | 65 | 257 | 3.0 | 3.0 | 0.00 | 0.00 | 0.00 | 31 | 1015.4 |
| 20260502005906 | 65 | 257 | 1.0 | 2.0 | 0.00 | 0.00 | 0.00 | 33 | 1015.1 |
| 20260502005404 | 65 | 262 | 3.0 | 5.0 | 0.00 | 0.00 | 0.00 | 32 | 1015.0 |
| 20260502004902 | 65 | 271 | 5.0 | 6.0 | 0.00 | 0.00 | 0.00 | 33 | 1015.0 |
| 20260502004357 | 66 | 252 | 4.0 | 5.0 | 0.00 | 0.00 | 0.00 | 33 | 1015.2 |
| 20260502003855 | 66 | 263 | 3.0 | 5.0 | 0.00 | 0.00 | 0.00 | 25 | 1015.1 |
| 20260502003352 | 66 | 36 | 3.0 | 3.0 | 0.00 | 0.00 | 0.00 | 26 | 1015.1 |
| 20260502002848 | 66 | 272 | 1.0 | 2.0 | 0.00 | 0.00 | 0.00 | 28 | 1015.1 |
| 20260502002346 | 66 | 279 | 7.0 | 10.0 | 0.00 | 0.00 | 0.00 | 25 | 1015.2 |
| 20260502001843 | 66 | 296 | 5.0 | 6.0 | 0.00 | 0.00 | 0.00 | 24 | 1014.9 |
| 20260502001340 | 66 | 259 | 4.0 | 5.0 | 0.00 | 0.00 | 0.00 | 24 | 1015.2 |
| 20260502000838 | 66 | 271 | 7.0 | 8.0 | 0.00 | 0.00 | 0.00 | 23 | 1015.2 |
| 20260502000336 | 67 | 276 | 5.0 | 6.0 | 0.00 | 0.00 | 0.00 | 24 | 1015.1 |
| 20260501235832 | 66 | 310 | 5.0 | 6.0 | 0.00 | 0.00 | 0.00 | 26 | 1015.2 |
| 20260501235328 | 66 | 286 | 6.0 | 7.0 | 0.00 | 0.00 | 0.00 | 26 | 1015.4 |
| 20260501234823 | 66 | 283 | 8.0 | 9.0 | 0.00 | 0.00 | 0.00 | 25 | 1015.2 |
| 20260501234320 | 66 | 330 | 7.0 | 8.0 | 0.00 | 0.00 | 0.00 | 25 | 1015.4 |
| 20260501233819 | 66 | 287 | 8.0 | 9.0 | 0.00 | 0.00 | 0.00 | 26 | 1015.7 |
| 20260501233316 | 66 | 295 | 6.0 | 9.0 | 0.00 | 0.00 | 0.00 | 26 | 1015.5 |
| 20260501232811 | 65 | 292 | 8.0 | 9.0 | 0.00 | 0.00 | 0.00 | 25 | 1015.5 |
| 20260501232309 | 65 | 254 | 4.0 | 5.0 | 0.00 | 0.00 | 0.00 | 27 | 1015.6 |
| 20260501231806 | 66 | 308 | 7.0 | 9.0 | 0.00 | 0.00 | 0.00 | 27 | 1015.7 |
| 20260501231304 | 66 | 319 | 7.0 | 9.0 | 0.00 | 0.00 | 0.00 | 26 | 1015.5 |
| 20260501230802 | 65 | 261 | 4.0 | 5.0 | 0.00 | 0.00 | 0.00 | 27 | 1015.5 |
| 20260501230300 | 66 | 257 | 7.0 | 8.0 | 0.00 | 0.00 | 0.00 | 26 | 1015.5 |
| 20260501225758 | 65 | 309 | 4.0 | 6.0 | 0.00 | 0.00 | 0.00 | 27 | 1015.6 |
| 20260501225256 | 65 | 298 | 7.0 | 10.0 | 0.00 | 0.00 | 0.00 | 26 | 1015.7 |
| 20260501224751 | 65 | 198 | 4.0 | 6.0 | 0.00 | 0.00 | 0.00 | 27 | 1015.7 |
| 20260501224249 | 66 | 260 | 7.0 | 10.0 | 0.00 | 0.00 | 0.00 | 26 | 1015.6 |
| 20260501223744 | 65 | 232 | 5.0 | 7.0 | 0.00 | 0.00 | 0.00 | 27 | 1015.6 |
| 20260501223241 | 65 | 289 | 9.0 | 11.0 | 0.00 | 0.00 | 0.00 | 25 | 1015.8 |
| 20260501222737 | 65 | 237 | 8.0 | 10.0 | 0.00 | 0.00 | 0.00 | 26 | 1015.8 |
| 20260501222235 | 65 | 288 | 6.0 | 7.0 | 0.00 | 0.00 | 0.00 | 27 | 1015.9 |
| 20260501221732 | 65 | 318 | 8.0 | 10.0 | 0.00 | 0.00 | 0.00 | 27 | 1015.8 |
| 20260501221229 | 65 | 289 | 11.0 | 15.0 | 0.00 | 0.00 | 0.00 | 26 | 1016.0 |
| 20260501220726 | 66 | 333 | 10.0 | 13.0 | 0.00 | 0.00 | 0.00 | 25 | 1016.0 |
| 20260501220223 | 65 | 280 | 5.0 | 6.0 | 0.00 | 0.00 | 0.00 | 26 | 1016.1 |
| 20260501215721 | 64 | 281 | 8.0 | 10.0 | 0.00 | 0.00 | 0.00 | 28 | 1015.9 |
| 20260501215216 | 65 | 267 | 4.0 | 5.0 | 0.00 | 0.00 | 0.00 | 27 | 1016.1 |
| 20260501214711 | 65 | 277 | 9.0 | 10.0 | 0.00 | 0.00 | 0.00 | 26 | 1016.1 |
| 20260501214207 | 64 | 257 | 5.0 | 7.0 | 0.00 | 0.00 | 0.00 | 29 | 1016.1 |
| 20260501213704 | 64 | 270 | 5.0 | 8.0 | 0.00 | 0.00 | 0.00 | 28 | 1016.4 |
| 20260501213200 | 64 | 313 | 8.0 | 9.0 | 0.00 | 0.00 | 0.00 | 28 | 1016.4 |
| 20260501212656 | 64 | 273 | 11.0 | 15.0 | 0.00 | 0.00 | 0.00 | 28 | 1016.4 |
| 20260501212153 | 65 | 293 | 12.0 | 15.0 | 0.00 | 0.00 | 0.00 | 27 | 1016.4 |
| 20260501211650 | 64 | 248 | 7.0 | 10.0 | 0.00 | 0.00 | 0.00 | 28 | 1016.4 |
| 20260501211147 | 64 | 268 | 5.0 | 7.0 | 0.00 | 0.00 | 0.00 | 28 | 1016.6 |
| 20260501210644 | 64 | 299 | 14.0 | 18.0 | 0.00 | 0.00 | 0.00 | 28 | 1016.6 |
| 20260501210141 | 64 | 234 | 3.0 | 7.0 | 0.00 | 0.00 | 0.00 | 31 | 1016.6 |
| 20260501205637 | 65 | 301 | 6.0 | 7.0 | 0.00 | 0.00 | 0.00 | 28 | 1016.6 |
| 20260501205135 | 65 | 293 | 4.0 | 6.0 | 0.00 | 0.00 | 0.00 | 28 | 1016.6 |
| 20260501204631 | 64 | 248 | 5.0 | 8.0 | 0.00 | 0.00 | 0.00 | 29 | 1016.5 |
| 20260501204127 | 64 | 252 | 7.0 | 8.0 | 0.00 | 0.00 | 0.00 | 28 | 1016.6 |
| 20260501203624 | 64 | 281 | 8.0 | 9.0 | 0.00 | 0.00 | 0.00 | 28 | 1016.5 |
| 20260501203121 | 65 | 246 | 4.0 | 5.0 | 0.00 | 0.00 | 0.00 | 28 | 1016.7 |
| 20260501202618 | 64 | 309 | 8.0 | 14.0 | 0.00 | 0.00 | 0.00 | 28 | 1016.7 |
| 20260501202115 | 64 | 305 | 5.0 | 9.0 | 0.00 | 0.00 | 0.00 | 30 | 1016.7 |
| 20260501201612 | 64 | 265 | 6.0 | 7.0 | 0.00 | 0.00 | 0.00 | 31 | 1016.7 |
| 20260501201108 | 65 | 314 | 6.0 | 7.0 | 0.00 | 0.00 | 0.00 | 31 | 1016.5 |
| 20260501200605 | 64 | 265 | 7.0 | 10.0 | 0.00 | 0.00 | 0.00 | 29 | 1016.6 |
| 20260501200103 | 65 | 233 | 6.0 | 7.0 | 0.00 | 0.00 | 0.00 | 29 | 1016.7 |
| 20260501195600 | 64 | 278 | 2.0 | 3.0 | 0.00 | 0.00 | 0.00 | 33 | 1016.8 |
| 20260501195055 | 63 | 250 | 8.0 | 11.0 | 0.00 | 0.00 | 0.00 | 30 | 1016.6 |
| 20260501194551 | 64 | 244 | 5.0 | 6.0 | 0.00 | 0.00 | 0.00 | 32 | 1016.5 |
| 20260501194047 | 63 | 254 | 3.0 | 5.0 | 0.00 | 0.00 | 0.00 | 30 | 1016.9 |
| 20260501193545 | 64 | 261 | 9.0 | 11.0 | 0.00 | 0.00 | 0.00 | 30 | 1016.8 |
| 20260501193043 | 63 | 224 | 4.0 | 5.0 | 0.00 | 0.00 | 0.00 | 31 | 1016.9 |
| 20260501192540 | 63 | 247 | 2.0 | 2.0 | 0.00 | 0.00 | 0.00 | 33 | 1017.2 |
| 20260501192038 | 63 | 214 | 6.0 | 7.0 | 0.00 | 0.00 | 0.00 | 30 | 1017.1 |
| 20260501191534 | 63 | 268 | 4.0 | 5.0 | 0.00 | 0.00 | 0.00 | 33 | 1017.2 |
| 20260501191032 | 64 | 229 | 5.0 | 6.0 | 0.00 | 0.00 | 0.00 | 31 | 1017.2 |
| 20260501190527 | 63 | 277 | 4.0 | 5.0 | 0.00 | 0.00 | 0.00 | 29 | 1017.3 |
| 20260501190023 | 64 | 255 | 3.0 | 3.0 | 0.00 | 0.00 | 0.00 | 30 | 1017.4 |
| 20260501185519 | 64 | 235 | 3.0 | 3.0 | 0.00 | 0.00 | 0.00 | 29 | 1017.4 |
| 20260501185015 | 64 | 250 | 4.0 | 6.0 | 0.00 | 0.00 | 0.00 | 29 | 1017.5 |
| 20260501184512 | 62 | 218 | 3.0 | 5.0 | 0.00 | 0.00 | 0.00 | 31 | 1017.5 |
| 20260501184006 | 63 | 261 | 4.0 | 5.0 | 0.00 | 0.00 | 0.00 | 25 | 1017.6 |
| 20260501183504 | 64 | 192 | 5.0 | 7.0 | 0.00 | 0.00 | 0.00 | 24 | 1017.4 |
| 20260501183000 | 63 | 217 | 2.0 | 2.0 | 0.00 | 0.00 | 0.00 | 26 | 1017.4 |
| 20260501182457 | 63 | 244 | 1.0 | 1.0 | 0.00 | 0.00 | 0.00 | 28 | 1017.6 |
| 20260501181953 | 62 | 109 | 3.0 | 3.0 | 0.00 | 0.00 | 0.00 | 27 | 1017.4 |
| 20260501181451 | 62 | 233 | 3.0 | 5.0 | 0.00 | 0.00 | 0.00 | 25 | 1017.5 |
| 20260501180948 | 63 | 243 | 2.0 | 3.0 | 0.00 | 0.00 | 0.00 | 28 | 1017.7 |